Theta_e
328 325 321 317 304 302 297 299 301 304 303 304 305 303 301 303 301 299 318 325 329 335 343 348 350 353 353 352 352 352 351 350 350 350 350 348 347 345 347 348 347 345 343 341 340 339 338 337 333
320 320 317 311 298 294 294 300 301 303 304 304 304 303 302 301 308 314 316 327 329 334 343 346 347 351 352 352 351 351 351 351 351 349 347 345 343 342 343 343 345 343 341 338 337 336 334 330 330
320 318 310 304 298 293 294 300 301 303 305 303 302 304 303 304 309 313 322 328 328 330 343 345 347 351 352 351 350 351 351 350 350 348 346 344 342 340 339 338 340 340 339 335 332 330 328 327 326
317 313 308 296 296 298 298 300 303 303 304 303 303 301 305 310 310 317 324 328 326 329 338 343 347 351 351 350 350 350 350 351 350 349 346 343 340 337 336 336 337 337 336 332 328 326 325 324 322
314 309 299 296 297 297 298 302 302 302 302 302 302 300 302 309 315 318 324 327 325 328 334 343 346 349 350 350 350 349 349 350 350 349 347 344 342 336 335 334 336 335 333 328 326 325 322 321 319
306 304 296 294 297 300 300 304 303 302 302 302 299 300 302 310 311 313 323 324 327 328 332 341 340 343 347 349 349 349 349 349 350 348 346 344 341 337 334 332 334 333 329 325 325 322 321 319 317
304 302 297 296 297 298 301 303 299 301 301 300 303 298 302 305 311 314 316 322 326 327 331 333 339 340 338 343 344 346 347 347 348 346 344 340 338 335 334 332 333 329 326 324 324 322 320 318 315
306 302 296 295 296 297 301 301 302 300 301 304 303 297 300 305 311 312 316 319 324 326 330 331 333 337 339 340 336 339 342 342 342 340 336 333 333 332 331 328 331 327 325 325 323 320 318 316 312
309 297 294 297 297 298 302 298 302 302 300 302 304 302 305 310 312 311 315 316 320 325 328 330 331 335 337 337 336 334 336 336 335 332 328 327 326 328 325 324 327 327 326 324 322 319 317 313 308
302 297 298 301 300 299 301 300 300 299 300 300 302 306 308 309 308 309 311 313 316 320 325 328 329 330 333 337 335 334 334 331 329 329 326 327 325 325 324 320 324 326 325 324 321 318 314 311 300
304 298 302 302 304 303 301 300 302 299 297 300 300 303 303 305 306 306 308 309 313 319 323 327 328 329 329 330 331 335 333 331 333 331 330 326 324 322 317 314 316 314 316 312 313 308 303 299 298
299 303 303 304 304 302 300 302 300 300 300 304 304 304 304 303 303 305 306 307 308 313 319 324 327 328 328 328 327 328 330 331 331 331 329 327 322 319 314 313 313 313 310 308 306 302 299 298 298
299 301 303 303 302 302 303 300 300 301 304 305 305 305 303 303 303 305 306 307 308 309 312 320 325 325 327 326 326 325 325 325 327 328 328 327 322 316 313 312 312 313 309 307 304 299 298 297 296
300 300 300 301 301 301 299 299 298 301 303 302 303 302 302 302 303 303 304 305 307 308 310 315 322 323 324 324 324 324 323 325 326 325 323 323 320 315 312 310 311 311 308 305 301 298 297 296 296
301 295 297 299 300 298 299 294 296 301 302 300 301 300 301 302 303 303 304 305 306 307 309 312 316 321 321 322 324 323 322 323 322 322 321 321 321 315 311 309 308 308 306 303 298 297 296 295 296
296 295 290 298 299 298 297 289 298 301 299 299 300 301 301 303 303 303 304 304 304 304 307 310 313 316 318 318 320 322 321 321 320 321 320 321 319 314 309 307 307 306 303 299 296 294 294 293 293
293 287 290 294 300 297 294 291 298 301 299 298 300 300 300 301 302 303 304 304 304 305 304 307 310 311 315 317 317 319 320 318 318 319 319 318 317 315 308 306 305 304 299 296 295 293 293 292 291
288 290 292 291 296 297 294 293 297 299 299 299 298 299 299 299 300 301 301 302 302 302 303 303 305 309 311 312 313 314 315 316 316 315 316 316 314 312 308 304 303 302 297 295 294 293 292 292 291
292 291 290 293 297 294 294 294 295 298 298 298 298 297 298 298 299 299 299 299 299 299 300 301 301 303 304 306 306 308 309 311 312 313 313 313 312 310 307 302 301 299 296 294 294 293 291 291 291
293 290 289 293 297 293 292 291 295 297 297 297 296 297 297 296 296 296 296 296 296 297 297 299 300 300 301 302 305 305 306 307 309 310 311 311 310 308 306 302 299 297 295 294 293 292 291 291 290
292 290 290 289 292 293 290 288 291 296 297 297 297 296 295 294 293 293 293 293 294 294 295 296 297 298 299 300 301 301 302 301 299 302 305 307 308 306 304 302 299 297 295 294 293 293 292 289 289
288 294 291 290 286 282 289 279 288 294 292 294 293 292 292 292 292 292 292 291 292 293 294 294 295 296 298 298 298 297 297 296 297 299 302 304 305 304 303 302 299 297 295 293 292 294 293 291 289
291 292 290 289 286 284 286 282 287 293 289 290 291 291 291 291 291 291 291 292 292 292 292 292 293 293 294 295 295 295 295 296 296 296 297 298 300 301 301 301 299 297 295 293 292 291 290 292 289
294 289 289 288 286 279 287 286 286 287 290 289 291 291 291 291 291 291 292 292 291 291 290 290 290 291 292 293 293 293 292 292 293 294 294 294 296 297 298 298 297 297 295 293 292 291 290 290 290
289 286 281 279 278 279 288 285 288 290 291 291 290 290 290 291 289 290 289 289 290 290 290 290 289 289 290 290 291 291 291 291 291 291 291 292 293 293 295 295 294 295 295 294 292 291 290 290 290
288 288 282 275 276 279 286 281 289 291 292 292 292 290 290 289 289 288 288 288 288 289 288 289 288 288 288 288 288 289 290 290 290 290 290 291 292 292 293 293 293 294 294 294 292 290 289 289 291
287 285 289 284 284 281 283 287 289 291 290 290 290 288 287 287 288 288 287 287 287 287 288 288 287 287 287 288 288 287 288 288 288 288 289 289 289 291 291 291 290 291 292 292 291 289 288 289 288
287 289 284 284 276 270 279 280 284 287 288 289 288 286 287 287 287 287 286 286 286 286 286 286 286 285 286 287 287 287 286 287 286 286 285 285 286 288 288 288 288 289 290 290 289 288 288 287 288
286 285 285 285 282 276 276 279 288 288 289 286 285 286 286 286 285 286 286 287 286 284 284 285 285 284 284 285 285 285 286 286 286 285 284 283 284 284 285 286 286 287 287 287 287 287 287 286 287
289 287 288 282 280 281 282 281 288 287 286 286 286 287 286 286 283 283 284 285 284 283 283 283 284 283 283 284 284 283 284 284 284 284 284 282 283 283 283 284 284 285 285 285 285 285 287 286 286
Wind_Speed
7 9 4 3 1 3 4 5 2 7 4 4 2 3 4 6 4 0 3 6 3 10 14 12 15 15 14 13 12 12 11 12 13 13 14 11 9 8 7 7 9 9 8 7 7 7 8 8 8
8 8 2 4 2 2 3 3 8 5 4 3 2 4 4 2 5 7 6 5 5 10 14 12 12 15 15 14 13 13 12 12 12 11 12 9 7 6 7 6 7 8 8 5 6 7 7 6 7
7 6 2 2 3 4 3 5 5 3 5 1 3 1 2 2 6 5 5 8 6 8 13 13 14 14 15 15 14 13 11 13 12 11 13 12 10 7 5 4 4 6 7 5 6 6 6 6 7
4 2 3 1 6 4 4 6 7 7 5 3 4 7 4 5 2 5 5 8 7 8 9 13 18 16 16 15 14 14 11 11 14 14 14 13 11 6 5 4 5 6 6 6 5 5 6 7 6
3 4 3 3 7 2 2 4 4 4 3 4 3 4 3 3 9 8 7 6 6 8 7 13 16 14 16 16 15 14 13 12 13 14 13 12 10 8 5 3 4 5 6 5 6 6 6 6 6
3 1 3 5 7 5 4 6 4 4 4 5 1 5 2 7 7 6 7 7 6 8 7 9 11 11 11 14 15 15 14 13 12 14 13 12 10 9 6 4 5 6 6 5 6 6 6 6 7
2 2 5 6 7 6 3 5 2 5 6 2 4 3 3 5 7 7 5 7 6 7 7 7 8 9 9 9 11 12 13 12 12 14 13 11 10 9 8 6 7 6 6 6 7 7 7 7 7
3 1 5 4 4 6 5 2 2 3 6 3 3 4 2 3 6 4 3 4 7 6 8 7 8 8 7 7 9 10 10 9 11 11 10 10 11 8 8 5 6 7 7 8 8 7 6 7 5
2 3 4 7 5 4 6 2 2 0 4 6 6 4 5 9 7 5 3 3 4 5 7 8 8 9 9 8 8 10 11 11 11 9 10 10 5 6 8 7 8 8 9 9 9 8 7 7 5
2 3 5 6 8 7 10 8 7 7 8 9 8 10 9 10 7 8 7 8 8 7 7 8 8 8 9 9 8 8 7 5 5 6 7 5 6 5 7 8 9 9 10 10 9 8 8 7 3
5 5 7 9 10 7 7 9 8 9 9 9 11 12 5 6 8 9 9 9 10 11 7 8 8 8 8 6 5 5 4 4 6 7 7 5 4 4 4 4 4 4 7 4 5 5 3 5 2
7 8 8 9 7 1 5 8 11 11 12 11 12 10 9 10 8 8 9 10 7 8 11 10 9 8 8 5 5 6 5 6 5 6 7 5 3 5 5 4 5 5 4 5 5 4 4 3 2
7 10 9 9 8 7 7 9 9 21 16 15 14 13 10 9 9 8 9 9 9 9 8 10 12 8 6 7 4 5 5 4 5 6 8 7 5 5 5 4 5 5 5 5 5 5 4 4 4
8 8 9 9 14 14 11 8 4 15 10 13 10 10 9 10 11 7 7 7 8 8 8 7 11 9 8 6 7 4 4 6 6 5 6 8 5 5 5 5 5 5 6 5 5 5 5 4 4
7 6 10 13 11 8 5 4 11 17 10 9 9 10 9 8 10 8 8 9 10 8 9 7 9 10 9 8 7 5 5 4 5 4 7 8 7 7 7 5 5 5 5 7 5 5 5 5 4
7 7 5 7 8 3 8 6 12 9 8 11 15 13 9 10 8 8 8 7 8 2 8 8 5 6 8 7 5 4 3 4 4 4 5 7 7 7 6 5 5 5 5 5 5 4 4 4 4
7 6 10 10 9 6 6 6 7 10 11 12 17 11 10 9 16 19 20 17 17 14 10 1 7 7 6 5 4 5 5 3 3 3 4 6 7 7 6 5 5 6 5 5 5 2 4 3 3
7 10 11 12 8 11 11 11 9 8 10 19 9 9 8 18 17 18 19 18 18 17 16 13 7 5 5 4 2 1 3 3 3 3 3 6 5 7 6 5 6 6 5 5 4 5 4 4 4
4 8 12 11 10 12 13 11 12 12 13 18 14 8 15 17 16 18 18 16 16 17 16 15 13 8 6 3 2 1 2 2 1 1 3 5 5 7 6 4 5 6 7 7 7 5 7 3 4
8 10 12 8 7 8 10 14 18 21 14 7 7 14 15 16 17 15 14 15 16 15 15 15 14 14 7 4 3 2 1 0 2 3 2 2 4 6 5 5 5 5 4 7 8 7 5 4 7
11 9 9 7 7 9 8 8 9 8 9 17 19 16 18 16 14 13 14 14 13 16 16 15 15 12 10 10 5 5 4 4 5 3 1 2 3 5 6 6 5 5 5 6 7 9 12 6 6
8 7 3 6 5 3 8 7 5 15 14 15 13 14 12 12 12 11 12 14 14 12 11 14 15 15 13 12 7 7 3 3 3 3 2 1 3 2 4 6 6 5 5 5 6 6 7 5 7
6 2 3 6 6 5 8 4 6 7 11 10 10 10 9 8 8 9 9 10 11 10 11 9 11 14 15 13 12 8 8 4 3 4 6 6 3 3 3 3 5 6 5 6 7 6 6 7 5
5 3 8 8 4 2 1 1 5 3 11 7 9 8 8 7 8 8 8 9 10 9 8 9 10 11 10 10 10 12 9 8 6 6 5 4 1 1 3 5 5 5 5 6 6 7 8 7 6
3 4 5 2 1 6 7 3 5 5 5 15 14 10 8 8 7 7 8 8 8 9 9 8 9 11 10 10 11 10 9 7 8 8 6 7 5 3 4 5 5 4 6 6 6 6 7 8 8
6 2 4 5 3 3 7 5 6 6 11 13 12 10 8 7 6 7 6 6 7 7 8 8 10 11 10 9 8 6 7 5 4 6 6 7 7 7 7 7 6 7 7 6 6 4 5 7 9
2 3 1 3 1 2 6 6 2 9 9 10 10 9 8 7 7 7 7 7 7 7 8 7 8 8 10 8 7 7 6 6 6 7 6 6 7 8 10 9 9 7 6 7 7 5 7 7 7
1 1 3 2 4 5 6 4 8 5 11 9 8 8 7 7 6 6 6 5 4 4 4 6 7 6 6 7 6 5 6 6 6 6 7 7 6 8 8 7 7 9 8 7 7 6 6 7 7
0 2 2 1 4 5 9 7 8 9 8 11 7 5 4 4 5 6 6 6 6 6 5 5 5 5 5 5 4 4 5 7 8 8 7 6 5 6 6 7 7 7 7 7 7 7 7 9 9
5 8 8 7 7 4 11 15 11 11 8 8 4 4 6 4 4 5 6 6 6 4 2 2 2 3 1 2 2 3 5 3 3 2 4 7 8 8 7 5 6 7 8 8 7 7 8 8 10
Wind_Direction
285 244 269 311 264 200 273 75 1 23 51 39 15 6 310 275 292 293 167 181 252 130 145 162 162 161 159 157 155 154 158 161 163 158 141 125 125 114 92 127 125 114 94 92 86 80 70 66 59
309 308 258 272 250 272 73 100 81 52 39 14 255 255 236 319 69 126 141 162 235 142 146 166 168 164 162 164 162 162 172 171 163 157 131 128 127 117 106 92 102 106 105 100 92 87 82 67 58
277 271 278 254 280 4 22 92 67 87 112 221 293 148 305 8 89 109 107 144 212 149 148 166 165 170 167 167 166 166 181 169 162 156 154 151 148 141 138 134 144 121 120 112 96 87 78 66 54
301 223 263 270 298 17 10 352 32 329 98 109 350 293 133 76 75 82 131 143 184 151 152 154 167 172 172 170 169 172 179 179 168 167 166 162 152 148 163 142 134 123 122 119 104 102 83 69 55
232 264 276 231 259 100 0 2 88 308 316 159 158 296 322 88 112 128 144 152 181 155 158 153 165 178 178 175 177 179 183 187 180 175 175 171 147 156 162 177 193 157 132 124 122 104 94 86 72
281 198 283 266 360 1 68 62 9 273 294 89 242 255 237 128 133 149 147 167 191 157 152 150 167 171 183 184 183 185 187 192 196 181 178 163 157 184 177 191 170 165 149 146 129 118 114 99 84
247 303 263 302 304 298 124 86 259 351 321 303 143 299 307 140 100 124 166 171 189 170 156 152 168 185 184 189 189 192 191 198 201 176 178 153 146 195 181 189 169 166 164 154 135 134 127 114 100
317 315 279 270 271 324 98 118 74 320 304 203 67 251 50 170 97 126 175 211 177 197 159 182 164 179 189 192 197 195 194 199 181 174 166 142 133 189 200 173 170 178 176 156 150 144 131 114 101
300 294 271 279 319 285 112 159 106 57 288 290 193 221 187 153 146 166 173 245 223 214 177 178 186 177 186 191 187 195 197 189 182 170 158 138 144 152 174 174 180 189 177 166 159 154 143 129 121
229 238 266 324 339 333 332 344 328 326 289 289 292 248 204 159 170 184 199 207 208 217 216 184 191 190 183 192 174 177 178 174 167 164 159 158 152 167 177 171 176 178 156 166 167 160 148 163 160
206 221 280 315 332 28 335 310 297 279 277 256 272 314 321 194 208 201 215 218 204 200 193 200 196 191 187 193 159 176 168 173 182 180 159 170 161 162 160 136 149 142 142 148 151 135 181 226 154
259 253 268 284 281 331 277 310 304 280 256 267 278 273 282 281 273 219 225 217 223 208 198 187 194 194 193 180 182 165 170 187 198 201 160 160 175 166 162 147 164 155 162 166 156 168 206 146 99
262 258 261 285 298 272 274 269 272 282 277 276 272 272 263 266 265 233 246 231 206 221 205 189 185 190 193 191 191 167 170 171 197 217 187 168 178 165 153 166 164 169 160 168 163 162 167 168 166
309 338 307 280 270 264 255 261 299 278 277 273 271 275 281 265 242 236 235 243 214 214 221 194 176 182 177 192 202 180 176 177 192 187 167 158 166 159 166 180 176 172 160 165 155 162 172 183 168
336 318 287 271 263 243 142 309 238 252 285 313 284 274 277 296 317 254 220 218 215 204 194 205 179 171 180 187 187 189 186 183 177 188 166 179 168 170 168 176 180 173 161 154 154 169 168 166 173
273 255 281 272 262 122 110 257 285 319 351 322 295 284 297 295 299 299 358 22 356 272 174 178 165 169 174 183 179 177 191 185 176 182 170 176 172 168 170 172 180 173 154 152 155 162 166 175 171
229 253 265 284 275 139 167 235 262 285 282 274 272 286 275 270 41 40 32 26 25 25 20 77 162 169 168 176 170 174 183 190 182 166 169 173 168 184 165 175 181 168 154 149 157 171 159 169 174
279 296 311 305 314 313 296 266 256 286 299 275 296 295 311 68 53 47 36 31 27 21 24 17 19 107 138 123 147 120 150 178 167 189 172 173 171 184 176 176 178 164 152 162 169 165 182 163 167
319 314 302 300 303 288 280 305 314 283 268 294 294 265 90 75 59 46 36 27 27 25 28 22 15 13 61 45 96 100 166 161 165 198 191 180 175 181 190 184 178 166 170 177 175 156 172 185 153
292 289 286 276 300 349 321 301 283 282 268 288 43 53 77 67 53 46 43 37 28 20 28 29 28 20 20 33 17 55 76 251 147 168 186 210 175 174 178 185 202 183 162 178 181 168 160 178 172
270 264 293 322 340 290 302 275 259 285 67 75 70 69 61 56 49 37 31 34 47 28 23 26 27 30 28 14 14 9 24 21 25 356 66 241 173 167 177 195 196 193 178 199 200 190 178 176 206
291 279 355 308 343 255 41 282 332 274 89 76 70 64 58 61 59 45 34 33 29 40 38 31 29 27 22 16 24 41 45 22 4 338 258 191 170 203 197 198 201 202 190 203 203 202 204 164 191
232 88 250 240 231 300 249 256 246 197 121 104 87 79 75 66 65 61 45 48 35 31 28 31 35 38 23 23 23 15 19 12 350 8 26 16 353 286 260 255 226 221 203 206 204 211 214 214 181
5 299 261 251 216 266 49 307 322 59 145 118 109 94 88 74 61 58 55 40 32 21 30 25 33 31 32 36 29 31 26 353 4 2 2 348 312 303 277 280 277 255 238 212 208 211 206 215 227
112 300 308 296 126 208 63 13 234 115 129 149 131 115 93 75 55 41 33 39 38 31 19 33 23 31 20 22 29 29 26 14 10 15 5 355 340 330 261 231 257 263 256 248 226 220 215 214 220
183 262 166 265 311 302 8 255 247 128 84 91 101 105 98 81 72 70 56 42 48 42 35 29 25 22 19 15 18 31 20 23 10 15 21 12 357 344 346 326 278 247 245 255 248 231 227 220 227
102 207 13 89 31 221 231 280 10 101 104 111 111 92 82 78 69 64 55 48 38 34 36 34 40 24 18 3 360 11 11 35 22 25 22 19 2 350 349 338 330 308 271 249 249 241 235 232 227
209 354 41 53 236 243 253 280 263 176 151 117 92 84 78 76 71 79 81 76 55 54 53 51 70 48 25 358 354 351 4 20 22 21 17 19 351 349 342 333 328 326 312 284 259 256 253 238 234
252 232 193 149 213 250 273 263 69 53 93 97 88 91 120 139 155 135 120 111 85 55 40 49 57 40 39 358 331 353 9 7 13 9 359 0 348 337 327 321 328 324 312 307 289 267 256 253 249
261 268 270 250 257 244 253 257 112 98 100 122 153 188 180 169 109 88 75 58 65 42 10 54 45 135 128 324 343 16 34 348 352 325 326 330 332 314 323 318 318 317 314 306 299 282 271 261 254